Previsão horária em 1-e Yuldybaevo

Hoje, 12 Abril, Segunda-feira

Tempo Temperatura Precipitação Vento Pressão Humidade
00:00 +1°C° 0 mm 1 m/s 753 mmHg 97%
01:00 +1°C° 0 mm 1 m/s 753 mmHg 97%
02:00 +1°C° 0 mm 1 m/s 753 mmHg 96%
03:00 +1°C° 0 mm 1 m/s 753 mmHg 96%
04:00 0°C° 0 mm 1 m/s 753 mmHg 95%
05:00 +1°C° 0 mm 1 m/s 753 mmHg 92%
06:00 +2°C° 0 mm 1 m/s 753 mmHg 89%
07:00 +3°C° 0 mm 0 m/s 753 mmHg 86%
08:00 +5°C° 0 mm 0 m/s 753 mmHg 83%
09:00 +7°C° 0 mm 0 m/s 753 mmHg 79%
10:00 +9°C° 0 mm 0 m/s 753 mmHg 76%
11:00 +10°C° 0 mm 0 m/s 753 mmHg 74%
12:00 +11°C° 0 mm 0 m/s 753 mmHg 72%
13:00 +12°C° 0 mm 0 m/s 753 mmHg 69%
14:00 +13°C° 0 mm 0 m/s 752 mmHg 71%
15:00 +13°C° 0 mm 0 m/s 752 mmHg 73%
16:00 +13°C° 0 mm 0 m/s 752 mmHg 75%
17:00 +11°C° 0 mm 0 m/s 752 mmHg 77%
18:00 +9°C° 0 mm 0 m/s 752 mmHg 81%
19:00 +7°C° 0 mm 0 m/s 753 mmHg 84%
20:00 +8°C° 0 mm 1 m/s 753 mmHg 85%
21:00 +7°C° 0 mm 1 m/s 753 mmHg 86%
22:00 +6°C° 0 mm 1 m/s 753 mmHg 87%
23:00 +6°C° 0 mm 1 m/s 754 mmHg 87%

Amanhã, 13 Abril, Terça-feira

Tempo Temperatura Precipitação Vento Pressão Humidade
00:00 +5°C° 0 mm 1 m/s 754 mmHg 88%
01:00 +5°C° 0 mm 1 m/s 754 mmHg 89%
02:00 +4°C° 0 mm 1 m/s 754 mmHg 90%
03:00 +3°C° 0 mm 2 m/s 754 mmHg 91%
04:00 +3°C° 0 mm 2 m/s 754 mmHg 92%
05:00 +4°C° 0 mm 2 m/s 755 mmHg 90%
06:00 +4°C° 0 mm 2 m/s 755 mmHg 88%
07:00 +5°C° 0 mm 2 m/s 755 mmHg 86%
08:00 +7°C° 0 mm 3 m/s 755 mmHg 83%
09:00 +9°C° 0 mm 3 m/s 755 mmHg 79%
10:00 +11°C° 0 mm 4 m/s 755 mmHg 76%
11:00 +11°C° 0 mm 4 m/s 755 mmHg 73%
12:00 +12°C° 0 mm 4 m/s 755 mmHg 71%
13:00 +13°C° 0 mm 4 m/s 754 mmHg 68%
14:00 +13°C° 0 mm 4 m/s 754 mmHg 69%
15:00 +13°C° 0 mm 4 m/s 754 mmHg 70%
16:00 +13°C° 0 mm 4 m/s 754 mmHg 71%
17:00 +11°C° 0 mm 3 m/s 754 mmHg 76%
18:00 +10°C° 0 mm 3 m/s 754 mmHg 81%
19:00 +9°C° 0 mm 2 m/s 754 mmHg 87%
20:00 +8°C° 0 mm 2 m/s 753 mmHg 88%
21:00 +8°C° 0 mm 2 m/s 753 mmHg 90%
22:00 +7°C° 0 mm 2 m/s 753 mmHg 92%
23:00 +6°C° 0 mm 2 m/s 753 mmHg 92%

Depois de amanhã, 14 Abril, Quarta-feira

Tempo Temperatura Precipitação Vento Pressão Humidade
00:00 +7°C° 0 mm 1 m/s 753 mmHg 92%
01:00 +7°C° 0 mm 1 m/s 753 mmHg 92%
02:00 +7°C° 0 mm 1 m/s 752 mmHg 92%
03:00 +6°C° 0 mm 1 m/s 752 mmHg 92%
04:00 +6°C° 0 mm 1 m/s 752 mmHg 93%
05:00 +6°C° 0 mm 1 m/s 752 mmHg 91%
06:00 +7°C° 0 mm 1 m/s 752 mmHg 89%
07:00 +7°C° 0 mm 1 m/s 752 mmHg 88%
08:00 +8°C° 0 mm 2 m/s 751 mmHg 80%
09:00 +10°C° 0 mm 2 m/s 751 mmHg 72%
10:00 +14°C° 0 mm 2 m/s 751 mmHg 65%
11:00 +14°C° 0 mm 3 m/s 750 mmHg 61%
12:00 +16°C° 0 mm 3 m/s 750 mmHg 57%
13:00 +17°C° 0 mm 3 m/s 749 mmHg 53%
14:00 +17°C° 0 mm 3 m/s 749 mmHg 50%
15:00 +17°C° 0 mm 3 m/s 748 mmHg 48%
16:00 +18°C° 0 mm 3 m/s 748 mmHg 46%
17:00 +16°C° 0 mm 3 m/s 748 mmHg 51%
18:00 +14°C° 0 mm 2 m/s 748 mmHg 57%
19:00 +13°C° 0 mm 2 m/s 747 mmHg 63%
20:00 +12°C° 0 mm 2 m/s 747 mmHg 65%
21:00 +10°C° 0 mm 2 m/s 747 mmHg 68%
22:00 +9°C° 0 mm 2 m/s 747 mmHg 70%
23:00 +8°C° 0 mm 2 m/s 747 mmHg 72%

15 Abril, Quinta-feira

Tempo Temperatura Precipitação Vento Pressão Humidade
00:00 +7°C° 0 mm 2 m/s 747 mmHg 73%
01:00 +7°C° 0 mm 2 m/s 747 mmHg 75%
02:00 +7°C° 0 mm 1 m/s 747 mmHg 75%
03:00 +7°C° 0 mm 1 m/s 746 mmHg 75%
04:00 +6°C° 0 mm 1 m/s 746 mmHg 76%
05:00 +7°C° 0 mm 1 m/s 746 mmHg 74%
06:00 +7°C° 0 mm 1 m/s 746 mmHg 72%
07:00 +8°C° 0 mm 1 m/s 746 mmHg 70%
08:00 +10°C° 0 mm 1 m/s 746 mmHg 62%
09:00 +12°C° 0 mm 2 m/s 745 mmHg 54%
10:00 +15°C° 0 mm 2 m/s 745 mmHg 46%
11:00 +16°C° 0 mm 2 m/s 745 mmHg 42%
12:00 +17°C° 0 mm 2 m/s 744 mmHg 37%
13:00 +19°C° 0 mm 2 m/s 744 mmHg 33%
14:00 +19°C° 0 mm 2 m/s 743 mmHg 32%
15:00 +19°C° 0 mm 2 m/s 743 mmHg 32%
16:00 +19°C° 0 mm 2 m/s 743 mmHg 31%
17:00 +18°C° 0 mm 2 m/s 742 mmHg 38%
18:00 +16°C° 0 mm 2 m/s 742 mmHg 45%
19:00 +14°C° 0 mm 1 m/s 742 mmHg 52%
20:00 +13°C° 0 mm 1 m/s 742 mmHg 55%
21:00 +12°C° 0 mm 1 m/s 742 mmHg 59%
22:00 +11°C° 0 mm 1 m/s 742 mmHg 62%
23:00 +11°C° 0 mm 1 m/s 742 mmHg 64%

16 Abril, Sexta-feira

Tempo Temperatura Precipitação Vento Pressão Humidade
00:00 +10°C° 0 mm 1 m/s 741 mmHg 65%
01:00 +10°C° 0 mm 1 m/s 741 mmHg 67%
02:00 +9°C° 0 mm 1 m/s 741 mmHg 68%
03:00 +9°C° 0 mm 1 m/s 740 mmHg 68%
04:00 +8°C° 0 mm 1 m/s 740 mmHg 69%
05:00 +9°C° 0 mm 1 m/s 740 mmHg 67%
06:00 +10°C° 0 mm 1 m/s 740 mmHg 66%
07:00 +10°C° 0 mm 1 m/s 739 mmHg 64%
08:00 +12°C° 0 mm 1 m/s 739 mmHg 57%
09:00 +14°C° 0 mm 1 m/s 739 mmHg 50%
10:00 +16°C° 0 mm 2 m/s 738 mmHg 44%
11:00 +17°C° 0 mm 2 m/s 738 mmHg 41%
12:00 +18°C° 0 mm 3 m/s 738 mmHg 39%
13:00 +19°C° 0 mm 3 m/s 737 mmHg 36%
14:00 +19°C° 0 mm 3 m/s 737 mmHg 36%
15:00 +19°C° 0 mm 4 m/s 736 mmHg 35%
16:00 +19°C° 0 mm 4 m/s 736 mmHg 34%
17:00 +17°C° 0 mm 3 m/s 735 mmHg 40%
18:00 +16°C° 0 mm 2 m/s 735 mmHg 45%
19:00 +15°C° 0 mm 1 m/s 734 mmHg 51%
20:00 +12°C° 0 mm 3 m/s 734 mmHg 62%
21:00 +11°C° 0 mm 4 m/s 734 mmHg 72%
22:00 +9°C° 0 mm 5 m/s 734 mmHg 82%
23:00 +7°C° 0 mm 5 m/s 734 mmHg 83%

17 Abril, Sábado

Tempo Temperatura Precipitação Vento Pressão Humidade
00:00 +6°C° 0 mm 5 m/s 734 mmHg 83%
01:00 +5°C° 0 mm 5 m/s 734 mmHg 84%
02:00 +3°C° 0 mm 5 m/s 735 mmHg 80%
03:00 +2°C° 0 mm 5 m/s 735 mmHg 77%
04:00 +1°C° 0 mm 6 m/s 736 mmHg 73%
05:00 +1°C° 0 mm 6 m/s 736 mmHg 72%
06:00 -1°C° 0 mm 6 m/s 737 mmHg 71%
07:00 -2°C° 0 mm 7 m/s 737 mmHg 70%
08:00 -1°C° 0 mm 7 m/s 737 mmHg 61%
09:00 -1°C° 0 mm 7 m/s 738 mmHg 53%
10:00 0°C° 0 mm 7 m/s 738 mmHg 44%
11:00 +2°C° 0 mm 7 m/s 738 mmHg 41%
12:00 +3°C° 0 mm 7 m/s 738 mmHg 37%
13:00 +4°C° 0 mm 6 m/s 738 mmHg 34%
14:00 +4°C° 0 mm 6 m/s 738 mmHg 34%
15:00 +5°C° 0 mm 5 m/s 738 mmHg 34%
16:00 +5°C° 0 mm 5 m/s 738 mmHg 34%
17:00 +3°C° 0 mm 5 m/s 738 mmHg 37%
18:00 +4°C° 0 mm 4 m/s 738 mmHg 39%
19:00 +3°C° 0 mm 4 m/s 737 mmHg 41%
20:00 +3°C° 0 mm 4 m/s 737 mmHg 43%
21:00 +2°C° 0 mm 5 m/s 736 mmHg 45%
22:00 +2°C° 0 mm 5 m/s 736 mmHg 47%
23:00 +1°C° 0 mm 5 m/s 735 mmHg 50%
Mostrar mais